Regional Weather Roundup
Issued by NWS State College, PA

Home | Current Version | Previous Version | Graphics & Text | Print | Product List | Glossary On
Versions: 1 2 3 4 5 6 7 8 9 10 11 12 13 14 15 16 17 18 19 20 21 22 23 24 25 26 27 28 29 30 31 32 33 34 35 36 37 38 39 40 41 42 43 44 45 46 47 48 49 50
000
ASUS41 KCTP 251710
RWRCTP

REGIONAL WEATHER ROUNDUP
NATIONAL WEATHER SERVICE STATE COLLEGE PA
100 PM EDT SAT APR 25 2015

Note: "fair" indicates few or no clouds below 12,000 feet with no
significant weather and/or obstructions to visibility.

* = STATION THAT DOES NOT REPORT PRECIPITATION /E.G. RAIN...SNOW...ETC/
    THUNDER OR FOG.

PAZ002>004-007>009-013>016-020>023-029>032-251800-
WESTERN PENNSYLVANIA

CITY           SKY/WX    TMP DP  RH WIND       PRES   REMARKS
ERIE           FAIR      41  25  53 N8        29.92F
MEADVILLE      CLOUDY    47  22  37 VRB3      29.86F
FRANKLIN*      PTSUNNY   46  19  34 E5        29.86F
NEW CASTLE     FAIR      50  21  32 N8        29.87F
BEAVER COUNTY  CLOUDY    48  28  46 NE3       29.86F
BUTLER*        CLOUDY    48  19  32 CALM      29.88F
PITTSBURGH INT CLOUDY    47  29  49 NE12      29.85F
PITTSBURGH     CLOUDY    46  28  49 VRB5      29.84F
INDIANA*       CLOUDY    46  14  27 CALM      29.88F
LATROBE        CLOUDY    46  32  57 E12       29.88F
WASHINGTON CO* PTSUNNY   48  30  49 NE5       29.85F
$$

PAZ004>006-010>012-017>019-024>028-033>037-041-042-045-046-049>053-251800-
CENTRAL PENNSYLVANIA

CITY           SKY/WX    TMP DP  RH WIND       PRES   REMARKS
BRADFORD       CLOUDY    44  19  36 VRB5      29.85F
DUBOIS         PTSUNNY   48  19  31 VRB5      29.84F
CLEARFIELD     CLOUDY    46  19  34 E3        29.85F
JOHNSTOWN      CLOUDY    41  19  41 CALM      29.82F
ALTOONA        CLOUDY    44  14  29 CALM      29.86F
STATE COLLEGE  NOT AVBL
WILLIAMSPORT   PTSUNNY   50  24  36 SW8       29.86F
SELINSGROVE    PTSUNNY   49  26  41 NW5       29.89F
FT INDIANTOWN  MOSUNNY   51  20  29 VRB2      29.87F
CAPITAL CITY   PTSUNNY   50  24  36 W6        29.90F
HARRISBURG     PTSUNNY   48  19  31 W6        29.89F
YORK           CLOUDY    47  19  33 W6        29.90F
$$

PAZ038>040-043-044-047-048-054-055-060>062-067>071-251800-
EASTERN PENNSYLVANIA

CITY           SKY/WX    TMP DP  RH WIND       PRES   REMARKS
SCRANTON       SUNNY     49  24  37 VRB3      29.84F
MOUNT POCONO   SUNNY     46  22  38 VRB6      29.80F
ALLENTOWN      MOSUNNY   52  26  36 W8        29.85F
QUAKERTOWN*    MOSUNNY   50  27  40 W8        29.86F
READING        MOSUNNY   51  26  37 W13G18    29.86F
LANCASTER      PTSUNNY   48  25  40 W9        29.88F
COATESVILLE    MOSUNNY   46  25  42 W7        29.88F
POTTSTOWN      PTSUNNY   49  23  36 VRB6      29.87F
BLUE BELL      PTSUNNY   52  28  40 W7        29.86F
DOYLESTOWN     PTSUNNY   51  26  37 NW8       29.84F
WILLOW GROVE   NOT AVBL
NORTH PHILA    PTSUNNY   52  24  33 VRB7      29.87F
PHILADELPHIA   PTSUNNY   51  22  31 SW9       29.88F
$$


USA.gov is the U.S. government's official web portal to all federal, state and local government web resources and services.